Weather History for West Palm Beach, FL

Change the Weather History Date:

Tuesday, February 26, 2013

  Actual Average Record
Temperature  
Mean Temperature 82 °F 69 °F  
Max Temperature 88 °F 77 °F 90 °F (1918)
Min Temperature 75 °F 60 °F 35 °F (1967)
Degree Days  
Heating Degree Days 0 1  
Month to date heating degree days 34 46  
Since 1 July heating degree days 82 203  
Cooling Degree Days 17 5  
Month to date cooling degree days 155 118  
Year to date cooling degree days 376 226  
Growing Degree Days 32 (Base 50)    
Moisture  
Dew Point 69 °F    
Average Humidity 67    
Maximum Humidity 87    
Minimum Humidity 46    
Precipitation  
Precipitation T in 0.12 in 2.90 in (1952)
Month to date precipitation 1.96 2.59  
Year to date precipitation 2.75 5.72  
Snow  
Snow 0.00 in - - ()
Month to date snowfall 0.0  
Since 1 July snowfall 0.0  
Snow Depth 0.00 in    
Sea Level Pressure  
Sea Level Pressure 29.84 in    
Wind  
Wind Speed 13 mph (SSW)    
Max Wind Speed 28 mph    
Max Gust Speed 35 mph    
Visibility 10 miles    
Events Rain    
T = Trace of Precipitation, MM = Missing Value Source: NWS Daily Summary

Daily Weather History Graph

Daily Weather History Graph

Search for Another Location

Airport:

Trip Planner

Search our weather history database for the weather conditions in past years. The results will help you decide how hot, cold, wet, or windy it might be!

Date:

Astronomy

Feb. 26, 2013 Rise Set
Actual Time 6:46 AM EST 6:19 PM EST
Civil Twilight 6:23 AM EST 6:43 PM EST
Nautical Twilight 5:56 AM EST 7:10 PM EST
Astronomical Twilight 5:29 AM EST 7:37 PM EST
Moon 7:22 PM EST (2/26) 6:57 AM EST (2/26)
Length of Visible Light 12h 19m
Length of Day
11h 33m
Full, 99% of the Moon is Illuminated
Feb 26
Full
Mar 4
Last Quarter
Mar 11
New
Mar 19
First Quarter
Mar 27
Full

Hourly Weather History & Observations

Time (EST) Temp. Heat Index Dew Point Humidity Pressure Visibility Wind Dir Wind Speed Gust Speed Precip Events Conditions
12:53 AM 75.0 °F - 70.0 °F 84% 29.83 in 10.0 mi SSE 8.1 mph - N/A   Mostly Cloudy
1:53 AM 75.0 °F - 71.1 °F 87% 29.81 in 10.0 mi SSE 10.4 mph - N/A   Scattered Clouds
2:53 AM 75.0 °F - 72.0 °F 90% 29.81 in 10.0 mi SSE 11.5 mph - N/A   Mostly Cloudy
3:53 AM 75.9 °F - 71.1 °F 85% 29.81 in 10.0 mi South 12.7 mph - N/A   Mostly Cloudy
4:53 AM 75.9 °F - 70.0 °F 82% 29.81 in 10.0 mi South 10.4 mph - N/A   Mostly Cloudy
5:53 AM 75.0 °F - 70.0 °F 84% 29.82 in 10.0 mi South 9.2 mph - N/A   Mostly Cloudy
6:53 AM 75.0 °F - 70.0 °F 84% 29.83 in 10.0 mi South 9.2 mph - N/A   Mostly Cloudy
7:53 AM 75.9 °F - 70.0 °F 82% 29.86 in 10.0 mi South 9.2 mph - N/A   Mostly Cloudy
8:53 AM 79.0 °F - 71.1 °F 77% 29.87 in 10.0 mi South 10.4 mph - N/A   Scattered Clouds
9:53 AM 82.0 °F 84.9 °F 68.0 °F 62% 29.88 in 10.0 mi South 15.0 mph - N/A   Scattered Clouds
10:53 AM 82.0 °F 85.9 °F 70.0 °F 67% 29.86 in 10.0 mi South 15.0 mph 21.9 mph N/A   Mostly Cloudy
11:53 AM 84.9 °F 87.1 °F 66.0 °F 53% 29.88 in 10.0 mi SW 16.1 mph 21.9 mph N/A   Mostly Cloudy
12:53 PM 86.0 °F 88.2 °F 66.0 °F 51% 29.85 in 10.0 mi SSW 16.1 mph 26.5 mph 0.00 in   Mostly Cloudy
1:53 PM 87.1 °F 88.9 °F 64.9 °F 48% 29.81 in 10.0 mi SSW 20.7 mph 28.8 mph N/A   Mostly Cloudy
2:53 PM 87.1 °F 89.2 °F 66.0 °F 49% 29.80 in 10.0 mi SW 23.0 mph 32.2 mph N/A   Mostly Cloudy
3:53 PM 82.9 °F 85.4 °F 66.9 °F 58% 29.80 in 10.0 mi SSW 23.0 mph 28.8 mph N/A   Mostly Cloudy
4:53 PM 79.0 °F - 70.0 °F 74% 29.82 in 10.0 mi SSW 12.7 mph - 0.00 in Rain Light Rain
5:53 PM 81.0 °F 83.8 °F 68.0 °F 65% 29.83 in 10.0 mi SSW 15.0 mph 27.6 mph 0.00 in   Mostly Cloudy
6:53 PM 79.0 °F - 68.0 °F 69% 29.85 in 10.0 mi SW 16.1 mph - 0.00 in   Mostly Cloudy
7:53 PM 78.1 °F - 68.0 °F 71% 29.86 in 10.0 mi SSW 11.5 mph - N/A   Mostly Cloudy
8:53 PM 77.0 °F - 69.1 °F 76% 29.88 in 10.0 mi SSW 10.4 mph - N/A   Scattered Clouds
9:53 PM 77.0 °F - 70.0 °F 79% 29.89 in 10.0 mi SSW 9.2 mph - N/A   Scattered Clouds
10:53 PM 75.9 °F - 70.0 °F 82% 29.88 in 10.0 mi SSW 10.4 mph - N/A   Partly Cloudy
11:53 PM 75.9 °F - 71.1 °F 85% 29.88 in 10.0 mi SW 8.1 mph - N/A   Mostly Cloudy